Location: *
(55.5817°S, 142.4781°W)
Time: 07:04:49
(UTC+00:00)

ADEOS Rocket - Pass Details

Date: 29 April 2025
Orbit: 857 x 1306 km, 98.7° (Epoch: 23 May)

Event Time Altitude Azimuth Distance (km) Brightness Sun altitude
Exits shadow 14:13:26 30° 232° (SW) 1,823 4.0 -22.5°
Drops below altitude 10° 14:17:22 10° 205° (SSW) 2,998 5.4 -21.9°
Sets 14:20:19 0° 197° (SSW) 4,033 6.1 -21.5°
